GW6198 Weather Reports


time (UTC)temp
C
wind
direction
speed
KPH
gust
KPH
rain 1hr
cm
rain 24hr
cm
rain mn
cm
humidity
%
barometer
mb
20260507145113 14 87 20.9 27.4 0.00 0.00 0.00 61 1022.1
20260507144608 14 67 17.7 25.7 0.00 0.00 0.00 62 1022.2
20260507144107 13 80 12.9 29.0 0.00 0.00 0.00 61 1022.1
20260507143603 13 87 19.3 25.7 0.00 0.00 0.00 63 1022.0
20260507143101 13 54 19.3 32.2 0.00 0.00 0.00 63 1022.3
20260507142601 13 102 14.5 27.4 0.00 0.00 0.00 63 1022.3
20260507142058 13 78 16.1 27.4 0.00 0.00 0.00 65 1022.3
20260507141554 13 108 20.9 27.4 0.00 0.00 0.00 64 1022.2
20260507141051 13 77 19.3 32.2 0.00 0.00 0.00 64 1022.2
20260507140548 12 96 17.7 27.4 0.00 0.00 0.00 66 1022.1
20260507140045 12 98 24.1 27.4 0.00 0.00 0.00 66 1022.2
20260507135542 12 83 14.5 24.1 0.00 0.00 0.00 67 1022.1
20260507135039 12 97 19.3 22.5 0.00 0.00 0.00 67 1022.0
20260507134536 12 111 17.7 25.7 0.00 0.00 0.00 68 1022.2
20260507134031 12 103 20.9 24.1 0.00 0.00 0.00 69 1022.0
20260507133528 12 88 12.9 20.9 0.00 0.00 0.00 69 1022.1
20260507133026 12 75 22.5 30.6 0.00 0.00 0.00 71 1022.0
20260507132522 12 85 20.9 30.6 0.00 0.00 0.00 71 1022.1
20260507132019 11 98 24.1 29.0 0.00 0.00 0.00 72 1021.9
20260507131516 11 95 24.1 30.6 0.00 0.00 0.00 72 1021.8
20260507131013 12 119 16.1 27.4 0.00 0.00 0.00 72 1021.6
20260507130510 11 88 14.5 27.4 0.00 0.00 0.00 73 1021.9
20260507130008 11 88 14.5 27.4 0.00 0.00 0.00 74 1021.4
20260507125506 11 71 17.7 29.0 0.00 0.00 0.00 74 1022.0
20260507125003 11 92 9.7 22.5 0.00 0.00 0.00 75 1021.5
20260507124459 11 101 11.3 22.5 0.00 0.00 0.00 75 1021.6
20260507123957 11 91 17.7 24.1 0.00 0.00 0.00 75 1021.5
20260507123455 11 78 14.5 25.7 0.00 0.00 0.00 76 1021.3
20260507122951 11 87 11.3 20.9 0.00 0.00 0.00 77 1021.3
20260507122447 11 77 14.5 27.4 0.00 0.00 0.00 77 1021.3
20260507121943 11 83 14.5 20.9 0.00 0.00 0.00 78 1021.0
20260507121438 11 71 9.7 27.4 0.00 0.00 0.00 78 1021.0
20260507120935 11 65 19.3 27.4 0.00 0.00 0.00 78 1021.2
20260507120431 11 66 12.9 19.3 0.00 0.00 0.00 78 1020.9
20260507115928 11 68 16.1 25.7 0.00 0.00 0.00 78 1021.0
20260507115424 11 86 11.3 19.3 0.00 0.00 0.00 77 1020.9
20260507114920 11 71 24.1 29.0 0.00 0.00 0.00 77 1020.9
20260507114417 11 75 12.9 24.1 0.00 0.00 0.00 77 1020.9
20260507113914 11 61 19.3 27.4 0.00 0.00 0.00 76 1021.0
20260507113411 11 71 14.5 19.3 0.00 0.00 0.00 76 1020.5
20260507112908 11 86 20.9 25.7 0.00 0.00 0.00 75 1021.0
20260507112406 11 86 22.5 24.1 0.00 0.00 0.00 75 1020.7
20260507111904 11 83 25.7 27.4 0.00 0.00 0.00 75 1020.8
20260507111400 11 64 19.3 22.5 0.00 0.00 0.00 74 1020.8
20260507110856 11 82 22.5 25.7 0.00 0.00 0.00 74 1020.9
20260507110352 11 82 22.5 27.4 0.00 0.00 0.00 73 1021.2
20260507105849 11 91 11.3 20.9 0.00 0.00 0.00 73 1020.9
20260507105346 11 81 12.9 20.9 0.00 0.00 0.00 72 1021.0
20260507104842 11 87 14.5 22.5 0.00 0.00 0.00 72 1021.0
20260507104339 11 70 14.5 22.5 0.00 0.00 0.00 71 1021.2
20260507103835 11 76 9.7 17.7 0.00 0.00 0.00 71 1021.2
20260507103332 12 74 9.7 20.9 0.00 0.00 0.00 71 1021.2
20260507102828 12 74 24.1 27.4 0.00 0.00 0.00 70 1020.9
20260507102325 12 84 14.5 20.9 0.00 0.00 0.00 70 1021.0
20260507101821 12 88 16.1 20.9 0.00 0.00 0.00 69 1021.0
20260507101316 12 87 16.1 22.5 0.00 0.00 0.00 69 1020.8
20260507100813 12 94 16.1 24.1 0.00 0.00 0.00 68 1020.9
20260507100311 12 63 14.5 27.4 0.00 0.00 0.00 68 1020.5
20260507095809 12 69 14.5 25.7 0.00 0.00 0.00 67 1020.5
20260507095306 12 70 19.3 25.7 0.00 0.00 0.00 67 1020.6
20260507094802 12 88 16.1 27.4 0.00 0.00 0.00 67 1020.5
20260507094259 12 76 17.7 25.7 0.00 0.00 0.00 67 1020.6
20260507093756 12 78 19.3 25.7 0.00 0.00 0.00 66 1020.6
20260507093255 12 94 14.5 29.0 0.00 0.00 0.00 66 1020.4
20260507092752 13 72 16.1 20.9 0.00 0.00 0.00 66 1020.4
20260507092248 13 73 16.1 19.3 0.00 0.00 0.00 66 1020.2
20260507091745 13 60 19.3 20.9 0.00 0.00 0.00 66 1020.4
20260507091241 13 82 17.7 24.1 0.00 0.00 0.00 65 1020.2
20260507090736 13 84 17.7 24.1 0.00 0.00 0.00 65 1020.5
20260507090233 13 83 14.5 20.9 0.00 0.00 0.00 65 1020.3
20260507085730 13 78 14.5 22.5 0.00 0.00 0.00 65 1020.1
20260507085227 13 93 9.7 19.3 0.00 0.00 0.00 65 1020.0
20260507084724 13 93 16.1 25.7 0.00 0.00 0.00 64 1020.1
20260507084221 13 86 14.5 25.7 0.00 0.00 0.00 64 1020.2
20260507083718 14 89 17.7 27.4 0.00 0.00 0.00 64 1019.8
20260507083215 14 73 22.5 24.1 0.00 0.00 0.00 64 1019.7
20260507082711 14 75 27.4 29.0 0.00 0.00 0.00 64 1019.8
20260507082207 14 87 17.7 24.1 0.00 0.00 0.00 64 1019.5
20260507081704 14 80 14.5 17.7 0.00 0.00 0.00 64 1019.7
20260507081200 14 79 9.7 17.7 0.00 0.00 0.00 65 1019.6
20260507080657 14 67 12.9 17.7 0.00 0.00 0.00 65 1019.4
20260507080153 14 93 8.0 14.5 0.00 0.00 0.00 65 1019.3
20260507075648 14 92 9.7 19.3 0.00 0.00 0.00 65 1019.5
20260507075144 14 89 17.7 24.1 0.00 0.00 0.00 65 1019.4
20260507074641 14 94 22.5 24.1 0.00 0.00 0.00 65 1019.4
20260507074140 14 104 20.9 30.6 0.00 0.00 0.00 65 1019.4
20260507073636 14 99 12.9 20.9 0.00 0.00 0.00 65 1019.4
20260507073132 14 77 20.9 22.5 0.00 0.00 0.00 65 1019.5
20260507072630 14 91 6.4 20.9 0.00 0.00 0.00 65 1019.5
20260507072127 15 92 16.1 25.7 0.00 0.00 0.00 65 1019.1
20260507071624 15 85 14.5 22.5 0.00 0.00 0.00 64 1019.2
20260507071120 15 89 17.7 20.9 0.00 0.00 0.00 64 1019.0
20260507070618 15 93 20.9 22.5 0.00 0.00 0.00 63 1019.0
20260507070115 15 84 11.3 20.9 0.00 0.00 0.00 63 1019.1
20260507065611 15 93 16.1 16.1 0.00 0.00 0.00 62 1019.0
20260507065108 15 72 11.3 19.3 0.00 0.00 0.00 62 1018.7
20260507064606 15 101 8.0 12.9 0.00 0.00 0.00 62 1018.7
20260507064104 15 110 9.7 12.9 0.00 0.00 0.00 62 1018.4
20260507063601 15 115 8.0 12.9 0.00 0.00 0.00 61 1018.5
20260507063059 15 98 8.0 14.5 0.00 0.00 0.00 61 1018.3
20260507062555 15 88 11.3 11.3 0.00 0.00 0.00 61 1018.4
20260507062053 16 97 9.7 9.7 0.00 0.00 0.00 61 1018.0
20260507061550 16 140 6.4 17.7 0.00 0.00 0.00 60 1018.1
20260507061048 16 122 9.7 14.5 0.00 0.00 0.00 61 1018.1
20260507060546 16 124 8.0 12.9 0.00 0.00 0.00 60 1018.1
20260507060042 16 117 8.0 9.7 0.00 0.00 0.00 59 1018.3
20260507055542 16 118 11.3 16.1 0.00 0.00 0.00 59 1017.9
20260507055039 16 124 9.7 17.7 0.00 0.00 0.00 58 1018.0
20260507054535 16 136 14.5 20.9 0.00 0.00 0.00 58 1017.9
20260507054032 16 121 12.9 16.1 0.00 0.00 0.00 58 1017.9
20260507053530 16 133 14.5 17.7 0.00 0.00 0.00 59 1017.8
20260507053029 16 122 11.3 16.1 0.00 0.00 0.00 59 1017.7
20260507052526 16 119 8.0 17.7 0.00 0.00 0.00 58 1017.7
20260507052022 17 122 14.5 16.1 0.00 0.00 0.00 57 1017.6
20260507051520 17 122 12.9 19.3 0.00 0.00 0.00 56 1017.6
20260507051017 17 125 8.0 17.7 0.00 0.00 0.00 56 1017.2
20260507050513 17 112 11.3 16.1 0.00 0.00 0.00 55 1017.6
20260507050010 17 106 12.9 17.7 0.00 0.00 0.00 54 1017.6
20260507045506 17 95 11.3 16.1 0.00 0.00 0.00 54 1017.7
20260507045004 17 102 9.7 14.5 0.00 0.00 0.00 52 1017.7
20260507044500 17 99 9.7 14.5 0.00 0.00 0.00 52 1017.6
20260507043956 17 96 6.4 9.7 0.00 0.00 0.00 52 1017.6
20260507043453 17 93 6.4 12.9 0.00 0.00 0.00 51 1017.4
20260507042949 17 87 6.4 14.5 0.00 0.00 0.00 51 1017.1
20260507042446 18 98 9.7 11.3 0.00 0.00 0.00 50 1017.4
20260507041942 18 106 6.4 14.5 0.00 0.00 0.00 50 1017.1
20260507041439 18 132 12.9 16.1 0.00 0.00 0.00 49 1016.9
20260507040936 18 118 11.3 16.1 0.00 0.00 0.00 48 1016.9
20260507040432 18 114 11.3 12.9 0.00 0.00 0.00 48 1016.7
20260507035928 18 108 9.7 17.7 0.00 0.00 0.00 47 1016.9
20260507035425 18 121 14.5 17.7 0.00 0.00 0.00 47 1016.6
20260507034921 18 127 14.5 20.9 0.00 0.00 0.00 46 1016.5
20260507034418 18 130 11.3 17.7 0.00 0.00 0.00 46 1016.5
20260507033916 19 111 9.7 16.1 0.00 0.00 0.00 46 1016.3
20260507033414 19 112 12.9 16.1 0.00 0.00 0.00 46 1016.2
20260507032911 19 114 8.0 17.7 0.00 0.00 0.00 46 1016.3
20260507032408 19 119 12.9 17.7 0.00 0.00 0.00 45 1016.4
20260507031903 19 116 11.3 24.1 0.00 0.00 0.00 45 1016.1
20260507031400 19 125 12.9 17.7 0.00 0.00 0.00 45 1015.8
20260507030857 20 124 11.3 20.9 0.00 0.00 0.00 44 1015.8
20260507030354 20 124 17.7 24.1 0.00 0.00 0.00 44 1015.8
20260507025851 20 125 16.1 20.9 0.00 0.00 0.00 43 1015.7
20260507025349 20 124 14.5 16.1 0.00 0.00 0.00 43 1015.5
20260507024846 20 128 14.5 22.5 0.00 0.00 0.00 43 1015.3
20260507024343 20 135 17.7 24.1 0.00 0.00 0.00 42 1015.2
20260507023839 20 122 9.7 17.7 0.00 0.00 0.00 42 1015.3
20260507023336 20 112 9.7 17.7 0.00 0.00 0.00 42 1015.2
20260507022833 20 119 12.9 17.7 0.00 0.00 0.00 41 1015.1
20260507022330 21 116 9.7 20.9 0.00 0.00 0.00 41 1014.8
20260507021826 21 117 19.3 20.9 0.00 0.00 0.00 40 1014.8
20260507021321 21 119 16.1 27.4 0.00 0.00 0.00 40 1014.8
20260507020819 21 114 12.9 24.1 0.00 0.00 0.00 40 1014.6
20260507020316 21 100 6.4 17.7 0.00 0.00 0.00 39 1014.9
20260507015813 22 99 14.5 20.9 0.00 0.00 0.00 38 1014.5
20260507015311 22 109 11.3 22.5 0.00 0.00 0.00 37 1014.5
20260507014807 22 107 19.3 29.0 0.00 0.00 0.00 36 1014.3
20260507014304 23 127 8.0 14.5 0.00 0.00 0.00 35 1014.2
20260507013800 23 128 8.0 14.5 0.00 0.00 0.00 34 1014.2
20260507013258 23 116 11.3 14.5 0.00 0.00 0.00 34 1014.1
20260507012755 23 126 11.3 17.7 0.00 0.00 0.00 33 1014.1
20260507012250 23 125 16.1 19.3 0.00 0.00 0.00 33 1014.1
20260507011748 23 118 14.5 19.3 0.00 0.00 0.00 33 1014.0
20260507011244 24 123 9.7 16.1 0.00 0.00 0.00 32 1013.9
20260507010744 24 123 9.7 17.7 0.00 0.00 0.00 32 1013.9
20260507010240 24 117 9.7 17.7 0.00 0.00 0.00 31 1014.1
20260507005738 25 136 11.3 19.3 0.00 0.00 0.00 31 1013.8
20260507005234 25 129 14.5 19.3 0.00 0.00 0.00 31 1013.8
20260507004730 25 123 11.3 24.1 0.00 0.00 0.00 31 1013.8
20260507004229 25 133 16.1 22.5 0.00 0.00 0.00 30 1013.7
20260507003724 25 133 12.9 19.3 0.00 0.00 0.00 30 1013.7
20260507003220 25 151 9.7 22.5 0.00 0.00 0.00 30 1013.6
20260507002716 25 117 12.9 16.1 0.00 0.00 0.00 28 1013.6
20260507002212 26 120 9.7 14.5 0.00 0.00 0.00 28 1013.6
20260507001709 26 150 8.0 14.5 0.00 0.00 0.00 27 1013.5
20260507001207 26 127 11.3 16.1 0.00 0.00 0.00 27 1013.5
20260507000703 25 128 9.7 17.7 0.00 0.00 0.00 27 1013.5
20260507000158 26 147 12.9 17.7 0.00 0.00 0.00 27 1013.5
20260506235656 26 165 6.4 11.3 0.00 0.00 0.00 27 1013.5
20260506235151 26 131 11.3 17.7 0.00 0.00 0.00 27 1013.5
20260506234648 26 125 9.7 14.5 0.00 0.00 0.00 28 1013.5
20260506234145 26 113 6.4 17.7 0.00 0.00 0.00 28 1013.6
20260506233642 26 136 11.3 16.1 0.00 0.00 0.00 27 1013.5
20260506233139 26 192 9.7 17.7 0.00 0.00 0.00 27 1013.6
20260506232635 26 179 3.2 9.7 0.00 0.00 0.00 25 1013.6
20260506232131 27 282 0.0 3.2 0.00 0.00 0.00 25 1013.5
20260506231628 26 67 1.6 8.0 0.00 0.00 0.00 26 1013.5
20260506231127 26 175 6.4 11.3 0.00 0.00 0.00 26 1013.6
20260506230623 26 150 6.4 6.4 0.00 0.00 0.00 26 1013.6
20260506230120 26 194 4.8 9.7 0.00 0.00 0.00 27 1013.5
20260506225617 26 160 4.8 11.3 0.00 0.00 0.00 28 1013.6
20260506225113 26 207 16.1 17.7 0.00 0.00 0.00 26 1013.6
20260506224610 26 180 3.2 8.0 0.00 0.00 0.00 28 1013.7
20260506224106 25 107 1.6 11.3 0.00 0.00 0.00 28 1013.6
20260506223602 25 150 3.2 9.7 0.00 0.00 0.00 29 1013.6
20260506223059 25 216 3.2 8.0 0.00 0.00 0.00 28 1013.7
20260506222556 25 180 4.8 12.9 0.00 0.00 0.00 29 1013.7
20260506222052 25 188 3.2 8.0 0.00 0.00 0.00 29 1013.8
20260506221550 25 136 9.7 11.3 0.00 0.00 0.00 28 1013.9
20260506221048 25 129 4.8 4.8 0.00 0.00 0.00 30 1013.8
20260506220543 25 65 4.8 8.0 0.00 0.00 0.00 29 1014.0
20260506220039 25 66 4.8 8.0 0.00 0.00 0.00 30 1014.1
20260506215536 25 121 4.8 6.4 0.00 0.00 0.00 29 1013.9
20260506215032 25 114 4.8 9.7 0.00 0.00 0.00 29 1014.0
20260506214529 25 175 3.2 9.7 0.00 0.00 0.00 30 1014.1
20260506214026 25 183 6.4 8.0 0.00 0.00 0.00 30 1014.2
20260506213524 24 125 3.2 6.4 0.00 0.00 0.00 30 1014.0
20260506213021 25 108 9.7 11.3 0.00 0.00 0.00 30 1014.1
20260506212518 24 188 3.2 8.0 0.00 0.00 0.00 31 1014.3
20260506212013 25 179 6.4 9.7 0.00 0.00 0.00 30 1014.2
20260506211509 24 63 0.0 6.4 0.00 0.00 0.00 31 1014.3
20260506211006 25 42 9.7 9.7 0.00 0.00 0.00 31 1014.6
20260506210502 24 24 8.0 8.0 0.00 0.00 0.00 33 1014.5
20260506205959 24 98 6.4 11.3 0.00 0.00 0.00 33 1014.5
20260506205456 24 142 3.2 4.8 0.00 0.00 0.00 34 1014.5
20260506204952 23 190 3.2 6.4 0.00 0.00 0.00 34 1014.9
20260506204450 23 27 1.6 4.8 0.00 0.00 0.00 35 1015.0
20260506203947 23 77 4.8 8.0 0.00 0.00 0.00 36 1015.1
20260506203444 23 118 6.4 6.4 0.00 0.00 0.00 37 1014.9
20260506202941 23 185 4.8 6.4 0.00 0.00 0.00 37 1015.1
20260506202438 22 169 6.4 14.5 0.00 0.00 0.00 38 1015.0
20260506201934 22 224 0.0 4.8 0.00 0.00 0.00 39 1015.2
20260506201432 22 85 4.8 19.3 0.00 0.00 0.00 40 1015.2
20260506200928 22 84 4.8 8.0 0.00 0.00 0.00 38 1015.2
20260506200425 22 99 11.3 14.5 0.00 0.00 0.00 40 1015.4
20260506195921 21 174 4.8 6.4 0.00 0.00 0.00 42 1015.3
20260506195418 21 124 8.0 12.9 0.00 0.00 0.00 42 1015.3
20260506194915 21 115 11.3 17.7 0.00 0.00 0.00 42 1015.4
20260506194412 21 95 8.0 12.9 0.00 0.00 0.00 43 1015.6
20260506193909 21 130 14.5 19.3 0.00 0.00 0.00 43 1015.5
20260506193406 21 72 6.4 16.1 0.00 0.00 0.00 44 1015.8
20260506192902 21 93 4.8 14.5 0.00 0.00 0.00 45 1015.6
20260506192359 20 80 12.9 19.3 0.00 0.00 0.00 45 1015.7
20260506191856 20 62 6.4 14.5 0.00 0.00 0.00 44 1015.8
20260506191352 20 111 8.0 16.1 0.00 0.00 0.00 45 1016.1
20260506190849 20 97 8.0 16.1 0.00 0.00 0.00 45 1016.1
20260506190346 21 39 4.8 9.7 0.00 0.00 0.00 45 1015.9
20260506185843 20 112 4.8 12.9 0.00 0.00 0.00 47 1016.1
20260506185340 20 113 11.3 22.5 0.00 0.00 0.00 47 1016.1
20260506184837 19 98 16.1 16.1 0.00 0.00 0.00 49 1016.2
20260506184334 19 84 8.0 14.5 0.00 0.00 0.00 48 1016.3
20260506183831 18 131 9.7 19.3 0.00 0.00 0.00 49 1016.3
20260506183326 18 89 9.7 19.3 0.00 0.00 0.00 50 1016.5
20260506182824 18 109 14.5 14.5 0.00 0.00 0.00 51 1016.4
20260506182321 18 99 1.6 8.0 0.00 0.00 0.00 51 1016.5
20260506181819 18 108 9.7 16.1 0.00 0.00 0.00 52 1016.5
20260506181316 17 101 12.9 16.1 0.00 0.00 0.00 52 1016.5
20260506180813 17 70 8.0 16.1 0.00 0.00 0.00 52 1016.4
20260506180309 17 113 12.9 16.1 0.00 0.00 0.00 53 1016.7
20260506175806 17 58 8.0 11.3 0.00 0.00 0.00 54 1016.8
20260506175306 17 80 12.9 17.7 0.00 0.00 0.00 54 1016.7
20260506174800 17 54 9.7 19.3 0.00 0.00 0.00 55 1016.8
20260506174257 17 104 6.4 17.7 0.00 0.00 0.00 54 1017.1
20260506173755 16 119 16.1 19.3 0.00 0.00 0.00 56 1017.1
20260506173251 16 91 11.3 16.1 0.00 0.00 0.00 57 1017.0
20260506172748 16 76 12.9 19.3 0.00 0.00 0.00 58 1017.0
20260506172245 16 58 12.9 19.3 0.00 0.00 0.00 57 1017.4
20260506171742 16 86 12.9 20.9 0.00 0.00 0.00 56 1017.1
20260506171239 16 81 14.5 16.1 0.00 0.00 0.00 57 1017.0
20260506170737 15 80 11.3 19.3 0.00 0.00 0.00 60 1016.9
20260506170233 15 66 20.9 22.5 0.00 0.00 0.00 59 1017.2
20260506165732 15 78 11.3 20.9 0.00 0.00 0.00 60 1017.2
20260506165229 15 93 22.5 24.1 0.00 0.00 0.00 61 1016.9
20260506164726 15 65 19.3 24.1 0.00 0.00 0.00 61 1016.9
20260506164223 15 32 17.7 24.1 0.00 0.00 0.00 62 1017.0
20260506163719 15 55 14.5 27.4 0.00 0.00 0.00 62 1017.0
20260506163214 14 83 6.4 27.4 0.00 0.00 0.00 63 1017.2
20260506162711 14 102 9.7 17.7 0.00 0.00 0.00 63 1017.1
20260506162208 14 100 19.3 24.1 0.00 0.00 0.00 63 1016.8
20260506161705 13 76 17.7 22.5 0.00 0.00 0.00 63 1016.8
20260506161202 13 70 12.9 24.1 0.00 0.00 0.00 65 1016.9
20260506160700 13 66 17.7 29.0 0.00 0.00 0.00 65 1017.1
20260506160156 13 91 19.3 25.7 0.00 0.00 0.00 65 1016.8
20260506155655 13 91 19.3 25.7 0.00 0.00 0.00 64 1017.0
20260506155151 13 52 24.1 32.2 0.00 0.00 0.00 66 1016.9
20260506153254 13 87 11.3 30.6 0.00 0.00 0.00 66 1016.9
20260506152750 12 95 12.9 24.1 0.00 0.00 0.00 67 1016.8
20260506152248 12 75 32.2 32.2 0.00 0.00 0.00 66 1017.0
20260506151747 12 86 17.7 29.0 0.00 0.00 0.00 68 1016.8
20260506151243 12 85 27.4 30.6 0.00 0.00 0.00 68 1016.8
20260506150739 12 94 22.5 32.2 0.00 0.00 0.00 68 1016.6
20260506150237 12 69 25.7 30.6 0.00 0.00 0.00 68 1016.7
20260506145734 12 70 27.4 32.2 0.00 0.00 0.00 67 1016.6